HST 1 20580U 90037B 25178.71024499 .00004448 00000-0 16287-3 0 9990 2 20580 28.4688 333.5833 0001995 201.3866 158.6645 15.25413367734298 ISS (ZARYA) 1 25544U 98067A 25179.15776912 .00006109 00000-0 11381-3 0 9995 2 25544 51.6349 252.7052 0002263 302.4301 57.6469 15.50279857516861 CXO 1 25867U 99040B 25180.01489709 .00000406 00000-0 00000-0 0 9994 2 25867 49.8035 129.0801 8406114 309.7498 0.1403 0.37805167 15982